Location: Newark
(45.2862°N, 9.8850°E)
Time: 06:08:56
(UTC+00:00)

N. Korean satellite - Pass Details

Date: 17 December 2019
Orbit: 454 x 508 km, 97.2° (Epoch: 20 January)

Event Time Altitude Azimuth Distance (km) Brightness Sun altitude
Rises 05:08:48 0° 14° (NNE) 2,522 10.2 -17.6°
Reaches altitude 10° 05:10:53 10° 16° (NNE) 1,632 9.2 -17.3°
Maximum altitude 05:14:22 72° 101° (E) 491 6.7 -16.7°
Drops below altitude 10° 05:17:47 10° 187° (S) 1,596 9.3 -16.1°
Sets 05:19:48 0° 189° (S) 2,460 10.3 -15.8°
